Regional Weather Roundup
Issued by NWS

Home | Current Version | Previous Version | Text Only | Print | Product List | Glossary Off
Versions: 1 2 3 4 5 6 7 8 9 10 11 12 13 14 15 16 17 18 19 20 21 22 23 24 25 26 27 28 29 30 31 32 33 34 35 36 37 38 39 40 41 42 43 44 45 46 47 48 49 50

000
ASUS43 KIND 212359
RWRIN

WEATHER ROUNDUP FOR INDIANA
NATIONAL WEATHER SERVICE INDIANAPOLIS IN
800 PM EDT TUE OCT 21 2014

NOTE: "FAIR" INDICATES FEW OR NO CLOUDS BELOW 12,000 FEET WITH NO
SIGNIFICANT WEATHER AND/OR OBSTRUCTIONS TO VISIBILITY.

* - STATION DOES NOT REPORT WEATHER SUCH AS PRECIPITATION OR FOG.

+ - STATION NOT QUALITY CONTROLLED BY THE NATIONAL WEATHER SERVICE.
    USE DATA WITH CAUTION...ESPECIALLY DEWPOINT AND RELATIVE
    HUMIDITY OBSERVATIONS.

INZ001>003-010>013-019-020-220100-
NORTHWEST INDIANA

CITY           SKY/WX    TMP DP  RH WIND       PRES   REMARKS
VALPARAISO     NOT AVBL

$$

LMZ046-743>745-220100-
SOUTHERN LAKE MICHIGAN

STATION/POSITION TIME  TEMP WIND        PRES
                       AIR  DIR/SP/G
                 (UTC) (F)  (DEG/KT/KT) (MB)
MICHIGAN CITY    2300   50  350/ 17/ 21   N/A

$$

INZ004-005-014>016-021>024-220100-
NORTH CENTRAL INDIANA

CITY           SKY/WX    TMP DP  RH WIND       PRES   REMARKS
ELKHART        CLOUDY    48  36  61 NE5       30.20R
GOSHEN         CLOUDY    48  38  68 NE7       30.19R
6HR MIN TEMP:  48; 6HR MAX TEMP:  52;

SOUTH BEND     CLOUDY    49  37  63 NE8       30.21R
6HR MIN TEMP:  49; 6HR MAX TEMP:  54;

WARSAW +       CLOUDY    46  37  71 NE5       30.19R

$$

INZ006>009-017-018-025>027-220100-
NORTHEAST INDIANA

CITY           SKY/WX    TMP DP  RH WIND       PRES   REMARKS
ANGOLA *+      CLOUDY    46  28  49 NE7       30.18R
FORT WAYNE     CLOUDY    48  38  68 NE8       30.18R
6HR MIN TEMP:  48; 6HR MAX TEMP:  53;


$$

INZ028-029-035-036-043>045-051>053-220100-
WEST CENTRAL INDIANA

CITY           SKY/WX    TMP DP  RH WIND       PRES   REMARKS
GREENCASTLE +  CLOUDY    52  43  71 CALM      30.16R
LAFAYETTE      CLEAR     48  40  73 N9        30.18R
6HR MIN TEMP:  48; 6HR MAX TEMP:  55;

TERRE HAUTE    CLOUDY    53  43  68 N8        30.17R
6HR MIN TEMP:  53; 6HR MAX TEMP:  59;


$$

INZ030>032-037>040-046>048-054>057-064-065-220100-
CENTRAL INDIANA

CITY           SKY/WX    TMP DP  RH WIND       PRES   REMARKS
CP ATTERBURY + CLOUDY    52  41  66 N6        30.14R
COLUMBUS       CLOUDY    52  45  76 N12       30.14R
FRANKFORT +    CLEAR     46  42  84 NW3       30.18R
INDIANAPOLIS   PTCLDY    48  41  76 NW6       30.14R
6HR MIN TEMP:  48; 6HR MAX TEMP:  57;

-EAGLE CREEK   CLEAR     50  43  77 NW5       30.14R
6HR MIN TEMP:  50; 6HR MAX TEMP:  57;

KOKOMO *+      CLOUDY    52  39  62 N12       30.17R
MT COMFORT *+  PTCLDY    48  37  66 N6        30.14S
SHELBYVILLE    PTCLDY    50  41  71 N3        30.13R
6HR MIN TEMP:  50; 6HR MAX TEMP:  58;


$$

INZ033-034-041-042-049-050-058-059-220100-
EAST CENTRAL INDIANA

CITY           SKY/WX    TMP DP  RH WIND       PRES   REMARKS
MUNCIE         CLOUDY    51  41  68 NE9       30.15R
6HR MIN TEMP:  51; 6HR MAX TEMP:  57;


$$

INZ060-061-067>069-081>083-085>088-220100-
SOUTHWEST INDIANA

CITY           SKY/WX    TMP DP  RH WIND       PRES   REMARKS
EVANSVILLE     CLEAR     54  41  61 N6        30.13R
6HR MIN TEMP:  54; 6HR MAX TEMP:  65;

HUNTINGBURG *+ PTCLDY    54  37  54 NE6       30.13S
6HR MIN TEMP:  54; 6HR MAX TEMP:  63;


$$

INZ062-063-066-070>080-084-089>092-220100-
SOUTH CENTRAL AND SOUTHEAST INDIANA

CITY           SKY/WX    TMP DP  RH WIND       PRES   REMARKS
BLOOMINGTON    CLOUDY    53  42  66 N6        30.14R
6HR MIN TEMP:  53; 6HR MAX TEMP:  60;


$$




USA.gov is the U.S. government's official web portal to all federal, state and local government web resources and services.